TimeCST,TemperatureF,Dew PointF,Humidity,Sea Level PressureIn,VisibilityMPH,Wind Direction,Wind SpeedMPH,Gust SpeedMPH,PrecipitationIn,Events,Conditions,WindDirDegrees,DateUTC
12:15 AM,56.5,54.7,94,29.77,10.0,South,15.0,-,N/A,,Mostly Cloudy,170,2013-03-09 06:15:00
12:35 AM,56.3,54.5,94,29.76,10.0,SSE,15.0,-,N/A,,Mostly Cloudy,160,2013-03-09 06:35:00
12:55 AM,56.3,53.8,91,29.77,10.0,South,11.5,17.3,N/A,,Overcast,180,2013-03-09 06:55:00
1:15 AM,55.6,53.2,92,29.77,10.0,South,12.7,-,N/A,,Overcast,170,2013-03-09 07:15:00
1:35 AM,54.9,52.9,93,29.76,7.0,SSE,13.8,-,N/A,,Overcast,160,2013-03-09 07:35:00
1:55 AM,54.9,53.1,94,29.77,10.0,South,12.7,-,0.01,,Overcast,170,2013-03-09 07:55:00
2:15 AM,55.0,53.6,95,29.75,7.0,SSE,11.5,-,N/A,,Overcast,160,2013-03-09 08:15:00
2:35 AM,55.4,53.8,94,29.73,5.0,South,9.2,-,N/A,,Overcast,170,2013-03-09 08:35:00
2:55 AM,55.2,53.8,95,29.72,5.0,South,9.2,-,N/A,,Overcast,180,2013-03-09 08:55:00
3:15 AM,54.7,53.6,96,29.72,4.0,South,10.4,-,0.01,,Overcast,180,2013-03-09 09:15:00
3:35 AM,54.3,53.2,96,29.70,5.0,South,12.7,-,0.01,,Overcast,170,2013-03-09 09:35:00
3:55 AM,53.8,52.7,96,29.71,7.0,South,10.4,-,0.01,,Overcast,180,2013-03-09 09:55:00
4:15 AM,53.2,52.0,95,29.70,7.0,South,10.4,-,N/A,,Overcast,170,2013-03-09 10:15:00
4:35 AM,52.9,51.8,96,29.69,10.0,South,12.7,-,N/A,,Mostly Cloudy,170,2013-03-09 10:35:00
4:55 AM,52.9,51.8,96,29.69,10.0,South,8.1,-,N/A,,Overcast,170,2013-03-09 10:55:00
5:15 AM,52.9,51.8,96,29.69,10.0,South,10.4,-,N/A,,Overcast,170,2013-03-09 11:15:00
5:35 AM,52.7,51.3,95,29.69,10.0,South,9.2,-,N/A,,Overcast,170,2013-03-09 11:35:00
5:55 AM,52.3,51.1,95,29.69,10.0,South,10.4,-,N/A,,Mostly Cloudy,170,2013-03-09 11:55:00
6:15 AM,52.2,51.1,96,29.69,10.0,SSE,9.2,-,N/A,,Mostly Cloudy,160,2013-03-09 12:15:00
6:35 AM,51.8,50.7,96,29.69,10.0,South,9.2,-,N/A,,Mostly Cloudy,180,2013-03-09 12:35:00
6:55 AM,51.8,50.7,96,29.70,10.0,South,9.2,-,N/A,,Mostly Cloudy,190,2013-03-09 12:55:00
7:15 AM,51.3,50.0,95,29.69,10.0,SSW,10.4,-,N/A,,Scattered Clouds,200,2013-03-09 13:15:00
7:35 AM,51.1,50.0,96,29.69,10.0,South,10.4,-,N/A,,Scattered Clouds,190,2013-03-09 13:35:00
7:55 AM,51.8,50.5,95,29.69,10.0,South,10.4,-,N/A,,Scattered Clouds,180,2013-03-09 13:55:00
8:15 AM,53.6,52.3,95,29.68,10.0,South,10.4,-,N/A,,Scattered Clouds,180,2013-03-09 14:15:00
8:35 AM,55.2,51.8,88,29.67,10.0,SSW,17.3,21.9,N/A,,Scattered Clouds,210,2013-03-09 14:35:00
8:55 AM,55.4,50.2,83,29.67,10.0,SSW,17.3,-,N/A,,Mostly Cloudy,200,2013-03-09 14:55:00
9:15 AM,57.0,49.3,75,29.66,10.0,South,19.6,25.3,N/A,,Scattered Clouds,190,2013-03-09 15:15:00
9:35 AM,58.8,45.3,61,29.65,10.0,SSW,20.7,27.6,N/A,,Clear,210,2013-03-09 15:35:00
9:55 AM,59.4,43.7,56,29.65,10.0,SSW,28.8,34.5,N/A,,Clear,210,2013-03-09 15:55:00
10:15 AM,59.9,41.4,50,29.65,10.0,SW,25.3,34.5,N/A,,Clear,220,2013-03-09 16:15:00
10:35 AM,60.8,39.4,45,29.64,10.0,SW,26.5,32.2,N/A,,Clear,230,2013-03-09 16:35:00
10:55 AM,61.9,38.5,42,29.64,10.0,SW,25.3,32.2,N/A,,Clear,230,2013-03-09 16:55:00
11:15 AM,61.9,33.3,34,29.64,10.0,SW,27.6,34.5,N/A,,Clear,230,2013-03-09 17:15:00
11:35 AM,62.8,32.9,33,29.64,10.0,SW,24.2,32.2,N/A,,Clear,220,2013-03-09 17:35:00
11:55 AM,63.9,31.8,30,29.63,10.0,SSW,28.8,34.5,N/A,,Clear,210,2013-03-09 17:55:00
12:15 PM,64.2,30.0,28,29.63,10.0,SW,29.9,35.7,N/A,,Clear,220,2013-03-09 18:15:00
12:35 PM,65.3,28.4,25,29.61,10.0,SW,27.6,39.1,N/A,,Clear,220,2013-03-09 18:35:00
12:55 PM,66.2,25.0,21,29.61,10.0,SW,32.2,38.0,N/A,,Clear,220,2013-03-09 18:55:00
1:15 PM,65.7,24.1,21,29.60,10.0,SW,26.5,40.3,N/A,,Clear,220,2013-03-09 19:15:00
1:35 PM,65.8,22.3,19,29.59,10.0,SW,29.9,39.1,N/A,,Clear,230,2013-03-09 19:35:00
1:55 PM,66.4,20.3,17,29.57,10.0,SW,28.8,39.1,N/A,,Clear,220,2013-03-09 19:55:00
2:15 PM,67.3,19.4,16,29.57,10.0,SW,27.6,39.1,N/A,,Clear,220,2013-03-09 20:15:00
2:35 PM,66.9,20.5,17,29.57,10.0,SW,25.3,38.0,N/A,,Clear,220,2013-03-09 20:35:00
2:55 PM,66.6,19.4,17,29.56,10.0,SSW,28.8,35.7,N/A,,Clear,210,2013-03-09 20:55:00
3:15 PM,66.6,18.1,16,29.55,10.0,SW,25.3,36.8,N/A,,Clear,230,2013-03-09 21:15:00
3:35 PM,66.9,17.1,15,29.55,10.0,SW,29.9,35.7,N/A,,Clear,230,2013-03-09 21:35:00
3:55 PM,65.7,15.8,15,29.56,10.0,SW,29.9,40.3,N/A,,Clear,230,2013-03-09 21:55:00
4:15 PM,65.1,14.9,14,29.55,10.0,SW,23.0,39.1,N/A,,Clear,230,2013-03-09 22:15:00
4:35 PM,64.4,14.9,15,29.56,10.0,SW,31.1,38.0,N/A,,Clear,220,2013-03-09 22:35:00
4:55 PM,63.5,14.0,15,29.56,10.0,SW,31.1,39.1,N/A,,Clear,230,2013-03-09 22:55:00
5:15 PM,62.4,11.8,14,29.57,10.0,WSW,28.8,43.7,N/A,,Clear,240,2013-03-09 23:15:00
5:35 PM,61.7,12.2,14,29.57,10.0,SW,27.6,38.0,N/A,,Clear,230,2013-03-09 23:35:00
5:55 PM,60.4,11.5,15,29.59,10.0,WSW,29.9,38.0,N/A,,Clear,240,2013-03-09 23:55:00
6:15 PM,58.6,11.3,15,29.59,10.0,WSW,25.3,38.0,N/A,,Clear,250,2013-03-10 00:15:00
6:35 PM,56.1,21.7,26,29.60,10.0,NW,29.9,36.8,N/A,,Clear,310,2013-03-10 00:35:00
6:55 PM,48.0,34.5,60,29.64,10.0,NW,29.9,34.5,N/A,,Scattered Clouds,320,2013-03-10 00:55:00
7:15 PM,44.8,33.8,65,29.65,10.0,NNW,27.6,34.5,N/A,,Clear,330,2013-03-10 01:15:00
7:35 PM,43.2,33.3,68,29.67,10.0,NNW,20.7,27.6,N/A,,Clear,330,2013-03-10 01:35:00
7:55 PM,41.7,32.5,70,29.70,10.0,NW,24.2,28.8,N/A,,Clear,320,2013-03-10 01:55:00
8:15 PM,41.2,32.0,70,29.73,10.0,NW,20.7,26.5,N/A,,Scattered Clouds,320,2013-03-10 02:15:00
8:35 PM,41.5,32.0,69,29.72,10.0,NW,23.0,27.6,N/A,,Overcast,320,2013-03-10 02:35:00
8:55 PM,40.1,31.3,71,29.72,10.0,NW,20.7,25.3,N/A,,Mostly Cloudy,320,2013-03-10 02:55:00
9:15 PM,38.8,30.2,71,29.73,10.0,NW,24.2,-,N/A,,Scattered Clouds,310,2013-03-10 03:15:00
9:35 PM,39.2,30.4,71,29.75,10.0,NW,24.2,-,N/A,,Overcast,320,2013-03-10 03:35:00
9:55 PM,38.8,30.2,71,29.75,10.0,NNW,24.2,27.6,N/A,,Overcast,330,2013-03-10 03:55:00
10:15 PM,38.5,30.2,72,29.74,10.0,NW,24.2,28.8,N/A,,Overcast,320,2013-03-10 04:15:00
10:35 PM,37.6,29.7,73,29.74,10.0,NW,26.5,32.2,N/A,,Overcast,320,2013-03-10 04:35:00
10:55 PM,37.6,29.8,74,29.73,10.0,NNW,25.3,29.9,N/A,,Overcast,330,2013-03-10 04:55:00
11:15 PM,37.4,29.8,74,29.73,10.0,NNW,23.0,29.9,N/A,,Overcast,330,2013-03-10 05:15:00
11:35 PM,37.0,29.7,75,29.73,10.0,NW,27.6,34.5,N/A,,Overcast,320,2013-03-10 05:35:00
11:55 PM,36.5,29.8,77,29.73,10.0,NW,29.9,35.7,N/A,,Overcast,320,2013-03-10 05:55:00